Wind_Speed
54 53 51 50 48 49 48 47 46 43 41 42 41 39 37 34 32 31 31 29 28 29 30 33 35 35 37 39 41 43 45 47 52 49 49 50 51 52 52 51 51 50 48
50 54 54 54 52 52 50 48 47 43 43 42 40 38 35 34 33 32 31 29 28 29 31 33 35 36 37 39 41 42 44 45 48 52 50 51 51 52 54 54 51 51 49
44 45 52 53 53 54 52 49 46 46 45 42 40 37 34 33 32 32 30 28 28 29 32 34 35 36 37 40 40 42 43 44 45 50 52 52 55 54 56 55 55 54 53
41 46 50 51 51 53 50 49 48 46 43 41 38 34 34 34 33 32 29 28 28 30 32 35 35 36 38 39 40 41 41 42 45 49 51 53 55 56 57 59 57 56 56
41 44 46 46 49 50 49 50 48 45 42 39 35 34 33 33 33 31 30 28 28 30 33 34 34 36 38 39 40 40 40 43 46 49 52 54 55 57 59 60 58 55 56
41 43 45 46 47 48 50 51 48 44 41 37 35 33 32 33 32 31 29 28 28 31 34 33 34 35 37 38 38 39 39 43 46 49 51 54 55 56 58 59 57 57 56
39 41 43 44 47 51 52 50 45 42 38 36 33 32 32 33 32 31 28 28 29 32 33 32 33 34 36 38 38 38 38 39 43 47 51 51 54 55 58 58 55 57 56
37 39 42 44 48 50 50 47 44 41 37 33 32 32 32 33 33 29 28 28 30 32 31 32 32 32 35 37 38 38 39 40 42 45 48 50 52 53 55 57 56 56 56
37 38 40 43 46 48 48 45 42 38 34 32 33 32 32 33 32 30 29 29 31 31 30 31 32 32 33 35 37 39 40 41 43 44 47 50 52 52 52 54 54 55 56
35 37 38 40 43 45 44 42 39 35 34 34 33 33 34 33 32 30 30 29 30 28 29 29 31 32 32 34 36 39 41 44 46 47 49 52 53 53 51 50 49 51 52
34 35 37 38 41 41 40 39 37 36 36 35 35 35 34 33 31 31 29 28 27 26 27 28 30 31 32 34 35 39 42 46 47 49 52 53 55 54 53 50 47 45 48
30 32 34 35 37 39 39 38 38 36 36 36 35 34 33 32 32 30 30 27 25 25 26 27 29 29 31 32 35 38 42 44 47 51 54 56 57 55 51 49 46 41 41
30 31 33 35 36 37 39 39 37 37 36 36 33 33 33 32 31 30 28 23 23 24 26 27 28 29 31 31 34 38 42 46 50 53 55 58 56 53 50 48 45 41 40
30 31 32 32 36 39 41 41 40 38 36 33 32 32 32 31 30 28 23 21 23 23 25 25 27 29 31 33 35 38 42 46 50 54 56 55 52 50 47 46 47 43 43
32 33 33 34 36 39 42 42 41 35 31 31 31 31 30 30 27 23 20 22 22 22 22 25 28 29 30 32 35 39 43 46 49 52 52 52 50 48 46 44 44 43 44
35 37 36 38 43 44 44 43 38 33 30 30 30 30 30 28 24 19 19 19 20 20 22 25 27 28 30 33 37 39 42 46 49 49 48 49 48 48 47 43 43 42 44
38 41 43 44 44 42 40 37 33 30 31 31 30 30 28 23 18 18 18 18 18 20 23 25 26 28 31 34 38 41 45 46 47 46 46 46 47 47 45 43 43 42 41
27 27 32 36 37 36 33 31 30 30 27 28 29 27 22 18 16 17 18 17 18 21 23 24 26 29 32 36 39 42 44 44 43 44 44 44 45 47 44 42 41 41 42
24 26 28 30 29 28 28 28 28 28 28 27 25 21 17 15 16 17 17 17 19 21 22 25 28 31 34 37 40 42 41 42 42 43 42 43 43 44 41 40 40 37 39
21 22 24 24 24 25 25 25 26 27 26 24 22 20 18 16 16 16 16 17 18 19 22 25 29 32 35 38 40 39 39 40 41 40 40 41 41 41 37 38 38 37 37
17 18 19 20 20 21 23 25 26 25 24 23 22 20 18 17 14 14 14 16 18 20 22 25 29 32 35 37 37 37 38 39 39 39 41 42 40 38 34 34 35 33 35
14 15 16 18 19 22 24 25 24 23 23 22 20 18 16 13 11 13 16 18 19 21 24 26 29 33 35 35 36 37 38 39 39 41 41 41 40 36 32 32 31 30 32
12 13 16 19 21 22 21 20 20 20 20 19 17 14 9 9 12 14 15 17 20 22 25 28 30 30 30 32 33 35 38 39 41 42 43 42 39 33 30 30 29 27 30
13 14 15 17 19 19 20 21 21 21 18 15 11 8 9 11 12 13 15 18 20 23 25 28 29 29 29 30 31 32 34 36 38 40 41 41 37 30 28 27 25 25 28
15 16 17 18 20 22 22 21 19 16 13 10 9 9 10 11 13 14 16 19 21 23 25 27 27 27 28 29 29 31 32 34 36 39 39 37 33 27 26 26 22 22 24
17 18 19 21 21 20 20 19 16 12 9 7 8 10 11 12 14 16 19 21 22 23 24 24 25 26 27 28 28 29 31 33 35 37 36 34 27 23 23 22 19 21 21
Wind_Direction
235 234 236 236 237 237 236 234 234 234 234 236 239 243 247 250 255 258 262 268 275 286 292 296 301 305 307 310 313 316 316 315 315 320 322 324 323 321 319 317 316 311 307
235 236 236 234 236 236 233 230 230 231 231 234 238 242 246 249 252 256 260 266 277 285 291 296 300 304 307 309 312 314 314 315 316 318 322 322 321 322 321 321 318 311 307
233 233 231 231 232 231 229 225 225 227 230 233 237 241 245 247 250 254 258 265 276 284 291 295 299 304 306 308 311 312 312 315 316 317 319 322 324 324 321 321 319 315 312
231 229 229 230 231 227 223 221 222 227 230 233 235 239 243 247 249 250 255 264 274 283 290 294 300 302 304 308 309 311 312 313 316 317 321 323 324 325 323 320 320 318 313
230 228 228 229 227 222 217 216 220 225 227 229 233 239 245 248 248 247 253 264 274 284 290 295 299 301 304 306 308 311 315 316 317 319 321 323 326 325 322 320 318 317 315
225 223 222 222 220 215 212 215 219 221 223 226 235 243 247 247 245 247 253 264 275 285 289 295 297 300 303 306 309 313 316 317 320 319 322 326 325 323 319 318 318 319 317
225 221 219 216 212 210 211 214 216 218 222 230 237 243 246 245 243 245 254 265 277 284 290 292 294 299 304 306 308 312 314 315 314 320 322 325 324 323 322 319 319 318 315
226 221 217 213 209 208 208 211 213 215 221 227 241 245 246 244 245 247 255 266 277 284 287 289 294 301 303 306 309 311 314 316 320 319 322 323 323 325 323 320 319 316 315
223 219 215 213 211 210 210 211 211 216 221 229 240 248 248 245 246 247 256 268 276 281 284 291 298 302 304 307 310 310 315 318 318 318 322 324 326 328 324 320 317 315 316
216 213 211 210 210 209 209 209 210 216 224 233 241 247 247 243 246 250 258 266 274 278 286 293 296 301 306 308 308 313 316 317 318 322 325 327 328 327 324 320 318 317 318
209 208 207 206 207 205 206 208 212 221 227 234 240 245 244 243 248 252 259 266 271 278 283 290 297 301 304 306 311 314 315 316 321 323 324 325 325 328 326 322 323 321 317
208 208 207 206 205 203 204 210 216 223 227 238 239 245 244 246 247 253 258 263 269 275 284 290 294 299 304 307 311 312 313 318 320 322 324 326 325 325 325 323 323 322 316
201 203 204 202 200 202 208 212 219 225 232 241 241 244 243 244 247 252 256 261 270 280 286 291 298 304 305 307 310 313 319 320 322 323 324 323 324 325 325 323 325 322 318
202 202 200 199 202 205 210 215 220 227 237 238 241 241 242 245 247 248 252 262 271 278 286 297 302 303 306 311 314 318 320 322 322 322 321 321 323 323 325 328 326 323 320
203 206 206 208 209 212 213 217 220 227 234 237 240 242 243 242 241 243 249 259 271 282 294 299 301 304 307 310 316 319 321 320 319 318 321 325 325 325 328 330 328 324 324
205 205 210 210 210 212 216 217 219 228 235 240 242 239 238 238 236 241 252 264 276 289 296 296 298 303 309 313 316 319 318 319 320 323 326 326 326 327 328 330 329 325 329
208 212 211 212 213 215 217 219 224 235 237 238 234 233 233 234 236 247 259 269 281 289 291 295 302 307 310 314 317 318 322 323 324 326 325 326 325 326 328 330 330 327 330
214 215 218 215 215 216 218 223 229 234 234 234 231 227 223 222 234 252 261 273 282 286 292 300 305 308 313 317 319 320 323 325 326 326 326 326 325 327 329 331 331 328 332
203 204 205 211 214 217 221 225 229 231 229 226 222 219 215 223 235 250 262 271 279 289 300 305 308 312 317 318 320 323 325 326 327 326 326 325 326 326 329 331 329 329 333
183 190 200 207 212 217 221 224 227 227 222 216 214 213 218 226 238 248 259 270 285 296 302 306 312 316 317 318 321 324 326 328 328 328 327 328 328 328 328 331 329 329 334
192 194 197 205 210 214 217 218 218 214 210 210 210 210 213 220 236 255 273 286 293 298 302 308 312 315 318 320 324 326 328 328 328 329 330 329 329 331 331 332 328 329 333
188 195 202 205 210 213 214 213 209 208 207 208 212 216 221 228 247 268 280 287 294 301 307 312 316 319 321 323 325 327 330 328 331 331 328 330 332 332 331 331 327 330 334
187 194 198 201 204 207 206 204 204 203 204 204 205 209 223 247 262 272 283 293 303 309 313 315 317 320 322 323 324 327 327 329 331 331 331 329 331 332 331 330 328 332 335
185 193 197 199 198 198 197 197 195 194 192 190 194 213 241 259 272 285 294 299 306 311 313 315 318 320 322 322 321 323 325 325 329 331 329 327 331 331 330 327 329 332 334
177 184 187 191 191 190 191 192 191 187 186 192 209 235 256 269 279 287 295 304 309 310 314 316 316 319 320 318 320 322 322 323 329 328 327 327 331 328 328 325 327 332 335
182 183 186 188 190 191 190 187 183 184 194 214 238 253 266 278 290 298 303 305 308 311 312 313 316 318 317 317 319 319 320 326 327 328 327 328 329 325 325 323 325 330 337
Height
2991 2996 3000 3005 3010 3014 3021 3028 3032 3036 3039 3041 3044 3048 3050 3052 3053 3053 3055 3055 3055 3054 3053 3050 3047 3043 3038 3034 3030 3025 3019 3011 3001 3000 2993 2986 2979 2971 2963 2954 2945 2937 2931
2980 2986 2990 2994 2999 3004 3012 3018 3023 3028 3030 3033 3037 3040 3042 3044 3045 3046 3048 3048 3048 3047 3045 3042 3039 3035 3031 3027 3023 3018 3011 3005 2995 2985 2983 2977 2970 2962 2950 2941 2933 2926 2920
2970 2973 2978 2983 2988 2995 3002 3008 3014 3017 3020 3024 3029 3032 3034 3036 3038 3040 3041 3042 3041 3039 3037 3035 3030 3027 3024 3020 3015 3010 3003 2996 2989 2979 2973 2967 2958 2949 2938 2929 2921 2914 2904
2958 2962 2967 2973 2980 2985 2993 2999 3003 3008 3013 3018 3022 3024 3026 3028 3030 3032 3033 3034 3033 3032 3030 3027 3023 3020 3017 3013 3008 3002 2995 2988 2981 2973 2964 2956 2948 2938 2926 2916 2908 2899 2890
2948 2952 2958 2964 2969 2976 2983 2988 2994 3000 3006 3011 3014 3016 3018 3021 3023 3025 3026 3026 3025 3024 3022 3019 3016 3013 3009 3005 2999 2993 2987 2980 2972 2964 2956 2947 2937 2926 2915 2906 2895 2888 2879
2939 2942 2947 2952 2959 2966 2973 2979 2986 2992 2998 3003 3006 3009 3011 3013 3015 3017 3018 3018 3018 3017 3014 3011 3009 3006 3002 2996 2989 2984 2979 2971 2962 2956 2947 2938 2927 2919 2909 2897 2885 2873 2865
2931 2934 2939 2943 2949 2956 2963 2971 2979 2985 2991 2995 2998 3001 3003 3004 3007 3009 3010 3011 3010 3009 3007 3004 3002 2998 2993 2987 2983 2978 2974 2967 2960 2949 2940 2932 2921 2911 2897 2886 2875 2864 2855
2924 2928 2932 2936 2942 2949 2957 2965 2972 2978 2983 2988 2991 2993 2995 2997 2999 3001 3003 3003 3003 3001 2999 2997 2995 2991 2985 2979 2975 2970 2965 2960 2952 2944 2933 2923 2913 2901 2888 2875 2865 2855 2846
2917 2921 2926 2931 2938 2944 2951 2959 2966 2972 2977 2981 2985 2987 2988 2990 2992 2994 2995 2995 2994 2993 2992 2989 2986 2982 2978 2973 2967 2962 2957 2950 2943 2936 2926 2916 2904 2892 2880 2866 2857 2845 2835
2912 2916 2921 2927 2933 2940 2947 2954 2961 2966 2971 2974 2977 2979 2980 2983 2984 2986 2987 2987 2987 2986 2984 2981 2977 2974 2969 2965 2960 2953 2946 2940 2933 2924 2916 2905 2894 2884 2874 2862 2850 2836 2827
2907 2911 2916 2921 2928 2935 2943 2949 2954 2959 2963 2966 2968 2970 2972 2975 2977 2978 2979 2980 2980 2979 2977 2974 2970 2966 2963 2958 2952 2945 2939 2932 2925 2916 2905 2894 2885 2876 2865 2854 2843 2831 2820
2903 2908 2912 2917 2924 2930 2937 2943 2947 2951 2955 2958 2960 2962 2965 2967 2969 2970 2972 2972 2972 2971 2968 2966 2964 2960 2957 2952 2946 2940 2934 2926 2917 2907 2895 2885 2875 2865 2857 2846 2837 2827 2818
2898 2903 2907 2912 2918 2925 2930 2935 2939 2943 2947 2950 2952 2955 2958 2959 2961 2963 2964 2965 2964 2963 2962 2960 2957 2953 2950 2945 2940 2933 2926 2917 2907 2897 2886 2877 2867 2857 2848 2838 2829 2820 2813
2894 2898 2902 2908 2912 2917 2922 2927 2932 2935 2938 2941 2945 2948 2950 2952 2955 2955 2956 2956 2956 2955 2954 2950 2948 2946 2942 2937 2932 2926 2918 2909 2899 2889 2879 2870 2860 2850 2840 2830 2820 2812 2804
2887 2892 2896 2900 2905 2910 2914 2919 2923 2928 2932 2936 2938 2941 2944 2945 2947 2947 2948 2948 2948 2947 2945 2944 2942 2938 2934 2930 2924 2918 2910 2903 2894 2884 2872 2860 2851 2841 2832 2824 2814 2806 2796
2881 2885 2889 2893 2897 2902 2907 2911 2917 2922 2926 2929 2932 2935 2937 2938 2939 2941 2941 2942 2942 2941 2940 2939 2936 2931 2927 2922 2915 2909 2903 2894 2885 2873 2862 2853 2843 2834 2825 2818 2809 2801 2790
2873 2878 2881 2886 2891 2897 2903 2908 2912 2916 2920 2923 2925 2929 2930 2932 2934 2936 2936 2936 2935 2935 2934 2933 2928 2923 2919 2913 2907 2900 2892 2885 2876 2866 2857 2848 2838 2829 2820 2812 2803 2796 2787
2868 2873 2879 2884 2890 2895 2899 2902 2907 2911 2915 2917 2919 2922 2924 2926 2928 2931 2930 2930 2929 2929 2927 2925 2920 2916 2911 2905 2899 2893 2885 2877 2869 2860 2851 2843 2834 2823 2815 2807 2800 2792 2781
2865 2870 2875 2881 2886 2890 2894 2898 2902 2905 2908 2910 2914 2916 2919 2922 2923 2925 2923 2923 2923 2921 2919 2918 2915 2910 2904 2899 2892 2887 2879 2871 2862 2855 2846 2838 2829 2819 2812 2804 2797 2791 2781
2863 2868 2872 2877 2881 2886 2890 2893 2897 2900 2903 2905 2908 2911 2915 2917 2919 2919 2918 2917 2917 2915 2914 2912 2907 2903 2898 2892 2886 2879 2872 2865 2857 2849 2841 2833 2824 2817 2808 2801 2794 2786 2778
2862 2866 2870 2875 2879 2883 2887 2890 2893 2896 2899 2901 2905 2908 2911 2912 2914 2914 2913 2912 2911 2909 2908 2906 2901 2897 2891 2885 2878 2872 2865 2859 2852 2844 2836 2828 2820 2813 2806 2799 2793 2786 2777
2862 2865 2868 2873 2877 2881 2885 2888 2890 2892 2896 2899 2902 2905 2908 2908 2909 2909 2909 2908 2906 2904 2902 2899 2895 2889 2884 2877 2872 2866 2859 2853 2846 2839 2831 2823 2817 2810 2803 2797 2792 2785 2777
2863 2865 2868 2872 2876 2880 2883 2886 2889 2892 2895 2897 2899 2901 2904 2905 2905 2905 2904 2903 2900 2896 2894 2891 2887 2884 2878 2872 2867 2861 2855 2848 2841 2834 2826 2820 2814 2807 2801 2796 2790 2785 2777
2862 2867 2869 2872 2876 2879 2882 2885 2888 2889 2890 2892 2895 2898 2900 2901 2901 2900 2899 2899 2895 2891 2888 2885 2880 2876 2872 2867 2863 2858 2852 2846 2839 2831 2824 2817 2810 2804 2800 2796 2791 2784 2778
2863 2867 2869 2872 2876 2880 2881 2883 2886 2888 2888 2891 2893 2895 2896 2897 2897 2895 2894 2894 2890 2887 2883 2879 2874 2871 2867 2863 2858 2853 2848 2842 2836 2828 2821 2815 2808 2802 2798 2794 2790 2786 2779
2864 2867 2870 2873 2876 2878 2879 2881 2883 2886 2888 2889 2891 2891 2892 2893 2892 2891 2890 2888 2885 2882 2878 2874 2870 2865 2861 2857 2852 2848 2844 2837 2832 2825 2818 2812 2806 2802 2797 2792 2788 2785 2781